898  
ASUS44 KSHV 241810  
RWRSHV  
 
WEATHER ROUNDUP FOR THE FOUR STATE AREA  
NATIONAL WEATHER SERVICE SHREVEPORT LA  
1200 PM CST SAT FEB 24 2018  
 
NOTE: "FAIR" INDICATES FEW OR NO CLOUDS BELOW 12000 FEET  
WITH NO SIGNIFICANT WEATHER AND/OR S TO VISIBILITY
.  
 
!LAZ001-LAZ014-TXZ097-241900  
SHREVEPORT...MONROE...TEXARKANA RADIOS  
 
CITY SKY/WX TMP DP RH WIND PRES REMARKS
 
SHREVEPORT CLOUDY 74 67 78 S18G28 29.89S  
MONROE PTSUNNY 78 66 66 S16G28 29.92F  
NATCHITOCHES PTSUNNY 77 67 71 S10G20 29.95F  
TEXARKANA CLOUDY 70 67 90 S18G24 29.82F  

 
 
!LAZ001-LAZ014-TXZ097-241900  
OTHER LOCATIONS...  
 
CITY SKY/WX TMP DP RH WIND PRES REMARKS
 
DOWNTOWN SHV CLOUDY 74 66 76 S9G22 29.89F  
BOSSIER CITY N/A 74 62 66 S16G24 29.88F  
RUSTON N/A 77 64 63 S22G32 29.95F  
LITTLE ROCK CLOUDY 68 67 96 S14G23 29.82F  
EL DORADO PTSUNNY 74 68 81 S15G24 29.89F  
JACKSON N/A 79 65 62 S20G26 30.01F  
NEW ORLEANS PTSUNNY 81 71 71 S17G29 30.06F  
HOUSTON CLOUDY 79 66 64 S20G30 29.94F  
LUFKIN CLOUDY 75 67 76 S15G23 29.90F  
TYLER LGT RAIN 71 68 90 S18G32 29.86F  
DAL FT WORTH PTSUNNY 51 48 89 NW12 29.87R  

 
 
!TXZ136-TXZ165-241900  
TYLER...LUFKIN RADIOS  
 
CITY SKY/WX TMP DP RH WIND PRES REMARKS
 
TYLER LGT RAIN 71 68 90 S18G32 29.86F  
GILMER CLOUDY 70 66 88 S17G26 29.85F  
LONGVIEW LGT RAIN 70 69 97 S16G22 29.88F FOG  
LUFKIN CLOUDY 75 67 76 S15G23 29.90F  

 
 
!TXZ136-TXZ165-241900  
OTHER LOCATIONS...  
 
CITY SKY/WX TMP DP RH WIND PRES REMARKS
 
NACOGDOCHES CLOUDY 73 67 81 S15 29.92R  
BEAUMONT CLOUDY 78 68 71 S22G29 29.98F  
HOUSTON CLOUDY 79 66 64 S20G30 29.94F  
COLLEGE STN CLOUDY 74 68 81 S17 29.90F  
AUSTIN CLOUDY 73 68 84 S14G25 29.90S  
DAL FT WORTH PTSUNNY 51 48 89 NW12 29.87R  
TEXARKANA CLOUDY 70 67 90 S18G24 29.82F  
SHREVEPORT CLOUDY 74 67 78 S18G28 29.89S  
FORT POLK PTSUNNY 78 66 64 S17G30 29.95F  
LAKE CHARLES CLOUDY 77 69 76 S18G28 30.00F  

 
 
 
CLICK HERE TO GO TO PREVIOUS BULLETINS.

The Nexlab LA Page
The Nexlab TX Page
The Nexlab AR Page
The Nexlab OK Page Main Text Page